BEARDSLEY LAKE (BRD)

Elevation: 3398' · STANISLAUS R basin · Operator: Oakdale South San Joaquin Irrigation District


Station comments:

04/14/2015Reservoir capacity updated from 77,600 to 97,800 from information found at http://ce-npdp-serv2.stanford.edu/DamDirectory/DamDetail.jsp?npdp_id=CA00263


Provisional data, subject to change.
Query executed Sunday at 23:34:48   clock

Select a sensor type for a plot of data.
Note: Reservoir Flows are daily averages.

Earlier

Date STORAGE    RES CHG    OUTFLOW    PPT INC   
 AF   AF   CFS   INCHES  
07/31/2015 62681 472 204 0.00
08/01/2015 63038 357 202 0.00
08/02/2015 63384 346 200 0.00
08/03/2015 63816 432 200 0.00
08/04/2015 63920 104 199 0.00
08/05/2015 64048 128 199 0.00
08/06/2015 64097 49 200 0.00
08/07/2015 64151 54 200 0.00
08/08/2015 64176 25 201 0.00
08/09/2015 64176 0 201 0.00
08/10/2015 64213 37 201 0.00
08/11/2015 64164 -49 233 0.00
08/12/2015 64121 -43 248 0.00
08/13/2015 64036 -- 248 0.00
08/14/2015 64072 36 251 0.00
08/15/2015 64115 43 253 0.00
08/16/2015 64164 49 253 0.00
08/17/2015 64195 31 253 0.00
08/18/2015 64244 49 252 0.00
08/19/2015 64109 -135 252 0.00
08/20/2015 63981 -128 251 0.00
08/21/2015 63853 -128 254 0.00
08/22/2015 63744 -109 253 0.00
08/23/2015 63628 -116 252 0.00
08/24/2015 63475 -153 285 0.00
08/25/2015 63305 -170 303 0.00
08/26/2015 63153 -152 297 0.00
08/27/2015 63087 -66 295 0.00
08/28/2015 62959 -128 298 0.00
08/29/2015 62790 -169 297 0.00
08/30/2015 -- -- -- --

Later | Latest

Warning! This data is preliminary and subject to revision.

Show BRD Map | Plot BRD Data | 1 Month BRD Data | Real-Time BRD Data | BRD Info